Time,TemperatureF,DewpointF,PressureIn,WindDirection,WindDirectionDegrees,WindSpeedMPH,WindSpeedGustMPH,Humidity,HourlyPrecipIn,Conditions,Clouds,dailyrainin,SoftwareType,DateUTC
2013-01-03 00:00:00,37.1,32.7,30.36,North,4,0.0,0.0,84,0.00,,,0.00,Wunderground v.1.15,2013-01-03 06:00:00,
2013-01-03 00:05:00,37.4,32.7,30.36,North,7,0.0,1.0,83,0.00,,,0.00,Wunderground v.1.15,2013-01-03 06:05:00,
2013-01-03 00:15:00,37.9,32.6,30.36,NNE,13,1.0,2.0,81,0.00,,,0.00,Wunderground v.1.15,2013-01-03 06:15:00,
2013-01-03 00:24:00,38.2,32.6,30.37,North,9,1.0,1.0,80,0.00,,,0.00,Wunderground v.1.15,2013-01-03 06:24:00,
2013-01-03 00:30:00,38.2,32.6,30.37,ENE,60,1.0,2.0,80,0.00,,,0.00,Wunderground v.1.15,2013-01-03 06:30:00,
2013-01-03 00:39:00,38.2,32.9,30.36,North,355,0.0,0.0,81,0.00,,,0.00,Wunderground v.1.15,2013-01-03 06:39:00,
2013-01-03 00:50:00,38.0,32.7,30.36,North,352,1.0,1.0,81,0.00,,,0.00,Wunderground v.1.15,2013-01-03 06:50:00,
2013-01-03 00:59:00,37.8,32.5,30.36,NNW,343,1.0,1.0,81,0.00,,,0.00,Wunderground v.1.15,2013-01-03 06:59:00,
2013-01-03 01:05:00,37.8,32.5,30.36,NNE,31,1.0,1.0,81,0.00,,,0.00,Wunderground v.1.15,2013-01-03 07:05:00,
2013-01-03 01:15:00,37.8,32.5,30.36,NE,47,1.0,1.0,81,0.00,,,0.00,Wunderground v.1.15,2013-01-03 07:15:00,
2013-01-03 01:25:00,37.9,32.9,30.37,NNE,25,1.0,1.0,82,0.00,,,0.00,Wunderground v.1.15,2013-01-03 07:25:00,
2013-01-03 01:35:00,37.9,32.9,30.36,NE,37,0.0,1.0,82,0.00,,,0.00,Wunderground v.1.15,2013-01-03 07:35:00,
2013-01-03 01:45:00,37.9,32.9,30.36,North,360,0.0,1.0,82,0.00,,,0.00,Wunderground v.1.15,2013-01-03 07:45:00,
2013-01-03 01:54:00,37.9,32.9,30.36,NE,53,1.0,2.0,82,0.00,,,0.00,Wunderground v.1.15,2013-01-03 07:54:00,
2013-01-03 02:00:00,37.9,32.9,30.36,NNE,25,1.0,2.0,82,0.00,,,0.00,Wunderground v.1.15,2013-01-03 08:00:00,
2013-01-03 02:10:00,37.9,33.2,30.37,NE,36,0.0,0.0,83,0.00,,,0.00,Wunderground v.1.15,2013-01-03 08:10:00,
2013-01-03 02:19:00,37.9,33.2,30.37,ENE,66,0.0,1.0,83,0.00,,,0.00,Wunderground v.1.15,2013-01-03 08:19:00,
2013-01-03 02:25:00,37.9,33.2,30.37,NNE,12,0.0,1.0,83,0.00,,,0.00,Wunderground v.1.15,2013-01-03 08:25:00,
2013-01-03 02:34:00,37.9,33.2,30.37,North,357,0.0,2.0,83,0.00,,,0.00,Wunderground v.1.15,2013-01-03 08:34:00,
2013-01-03 02:40:00,38.0,33.3,30.37,NNE,13,1.0,1.0,83,0.00,,,0.00,Wunderground v.1.15,2013-01-03 08:40:00,
2013-01-03 02:50:00,38.0,33.3,30.37,NNW,348,0.0,0.0,83,0.00,,,0.00,Wunderground v.1.15,2013-01-03 08:50:00,
2013-01-03 02:59:00,38.1,33.4,30.37,ENE,73,0.0,0.0,83,0.00,,,0.00,Wunderground v.1.15,2013-01-03 08:59:00,
2013-01-03 03:05:00,38.1,33.4,30.37,ENE,72,0.0,1.0,83,0.00,,,0.00,Wunderground v.1.15,2013-01-03 09:05:00,
2013-01-03 03:15:00,38.2,33.5,30.38,NE,42,0.0,0.0,83,0.00,,,0.00,Wunderground v.1.15,2013-01-03 09:15:00,
2013-01-03 03:24:00,38.1,33.4,30.38,East,79,0.0,0.0,83,0.00,,,0.00,Wunderground v.1.15,2013-01-03 09:24:00,
2013-01-03 03:30:00,38.1,33.4,30.39,East,79,0.0,0.0,83,0.00,,,0.00,Wunderground v.1.15,2013-01-03 09:30:00,
2013-01-03 03:39:00,38.0,33.0,30.40,East,79,0.0,0.0,82,0.00,,,0.00,Wunderground v.1.15,2013-01-03 09:39:00,
2013-01-03 03:45:00,38.0,33.0,30.40,East,79,0.0,0.0,82,0.00,,,0.00,Wunderground v.1.15,2013-01-03 09:45:00,
2013-01-03 03:54:00,38.0,33.0,30.40,ENE,70,0.0,0.0,82,0.00,,,0.00,Wunderground v.1.15,2013-01-03 09:54:00,
2013-01-03 04:05:00,38.1,32.8,30.40,ENE,70,0.0,0.0,81,0.00,,,0.00,Wunderground v.1.15,2013-01-03 10:05:00,
2013-01-03 04:14:00,38.2,32.9,30.40,NNE,27,0.0,1.0,81,0.00,,,0.00,Wunderground v.1.15,2013-01-03 10:14:00,
2013-01-03 04:20:00,38.3,33.0,30.40,NNE,33,0.0,0.0,81,0.00,,,0.00,Wunderground v.1.15,2013-01-03 10:20:00,
2013-01-03 04:30:00,38.4,33.1,30.41,NNE,23,0.0,1.0,81,0.00,,,0.00,Wunderground v.1.15,2013-01-03 10:30:00,
2013-01-03 04:39:00,38.4,32.8,30.41,NE,48,0.0,0.0,80,0.00,,,0.00,Wunderground v.1.15,2013-01-03 10:39:00,
2013-01-03 04:45:00,38.5,33.2,30.41,NE,36,0.0,1.0,81,0.00,,,0.00,Wunderground v.1.15,2013-01-03 10:45:00,
2013-01-03 04:55:00,38.6,33.0,30.41,NNE,15,1.0,1.0,80,0.00,,,0.00,Wunderground v.1.15,2013-01-03 10:55:00,
2013-01-03 05:04:00,38.6,32.6,30.41,NNE,30,0.0,1.0,79,0.00,,,0.00,Wunderground v.1.15,2013-01-03 11:04:00,
2013-01-03 05:10:00,38.7,32.4,30.40,North,7,1.0,1.0,78,0.00,,,0.00,Wunderground v.1.15,2013-01-03 11:10:00,
2013-01-03 05:19:00,38.8,32.5,30.40,NE,53,1.0,1.0,78,0.00,,,0.00,Wunderground v.1.15,2013-01-03 11:19:00,
2013-01-03 05:25:00,38.8,32.5,30.40,NE,43,1.0,3.0,78,0.00,,,0.00,Wunderground v.1.15,2013-01-03 11:25:00,
2013-01-03 05:35:00,38.8,32.2,30.40,North,356,1.0,1.0,77,0.00,,,0.00,Wunderground v.1.15,2013-01-03 11:35:00,
2013-01-03 05:44:00,38.8,32.2,30.40,North,1,1.0,1.0,77,0.00,,,0.00,Wunderground v.1.15,2013-01-03 11:44:00,
2013-01-03 05:50:00,38.9,32.0,30.39,NE,36,1.0,1.0,76,0.00,,,0.00,Wunderground v.1.15,2013-01-03 11:50:00,
2013-01-03 06:00:00,38.9,32.0,30.39,NE,55,1.0,1.0,76,0.00,,,0.00,Wunderground v.1.15,2013-01-03 12:00:00,
2013-01-03 06:09:00,38.9,31.6,30.40,NE,49,1.0,1.0,75,0.00,,,0.00,Wunderground v.1.15,2013-01-03 12:09:00,
2013-01-03 06:15:00,38.9,31.6,30.40,NNE,27,1.0,1.0,75,0.00,,,0.00,Wunderground v.1.15,2013-01-03 12:15:00,
2013-01-03 06:24:00,39.0,31.7,30.40,ENE,71,1.0,2.0,75,0.00,,,0.00,Wunderground v.1.15,2013-01-03 12:24:00,
2013-01-03 06:35:00,39.0,31.4,30.39,NE,55,1.0,1.0,74,0.00,,,0.00,Wunderground v.1.15,2013-01-03 12:35:00,
2013-01-03 06:44:00,38.9,31.3,30.41,ENE,64,1.0,2.0,74,0.00,,,0.00,Wunderground v.1.15,2013-01-03 12:44:00,
2013-01-03 06:55:00,39.0,31.1,30.41,NE,46,2.0,2.0,73,0.00,,,0.00,Wunderground v.1.15,2013-01-03 12:55:00,
2013-01-03 07:04:00,39.2,31.3,30.42,NNE,20,2.0,4.0,73,0.00,,,0.00,Wunderground v.1.15,2013-01-03 13:04:00,
2013-01-03 07:10:00,39.2,30.9,30.42,NE,37,1.0,1.0,72,0.00,,,0.00,Wunderground v.1.15,2013-01-03 13:10:00,
2013-01-03 07:19:00,39.2,30.9,30.42,NE,56,2.0,2.0,72,0.00,,,0.00,Wunderground v.1.15,2013-01-03 13:19:00,
2013-01-03 07:29:00,39.4,31.1,30.42,NE,51,2.0,2.0,72,0.00,,,0.00,Wunderground v.1.15,2013-01-03 13:29:00,
2013-01-03 07:35:00,39.4,31.1,30.42,NE,53,2.0,2.0,72,0.00,,,0.00,Wunderground v.1.15,2013-01-03 13:35:00,
2013-01-03 07:44:00,39.6,31.3,30.42,NE,56,2.0,3.0,72,0.00,,,0.00,Wunderground v.1.15,2013-01-03 13:44:00,
2013-01-03 07:50:00,39.6,31.0,30.43,NE,43,2.0,2.0,71,0.00,,,0.00,Wunderground v.1.15,2013-01-03 13:50:00,
2013-01-03 07:59:00,39.8,31.5,30.43,North,352,2.0,4.0,72,0.00,,,0.00,Wunderground v.1.15,2013-01-03 13:59:00,
2013-01-03 08:10:00,40.0,31.0,30.43,NE,40,2.0,2.0,70,0.00,,,0.00,Wunderground v.1.15,2013-01-03 14:10:00,
2013-01-03 08:20:00,40.2,31.2,30.44,East,87,2.0,2.0,70,0.00,,,0.00,Wunderground v.1.15,2013-01-03 14:20:00,
2013-01-03 08:30:00,40.4,31.0,30.44,NE,36,3.0,3.0,69,0.00,,,0.00,Wunderground v.1.15,2013-01-03 14:30:00,
2013-01-03 08:39:00,40.7,31.3,30.45,ENE,57,2.0,2.0,69,0.00,,,0.00,Wunderground v.1.15,2013-01-03 14:39:00,
2013-01-03 08:45:00,40.7,31.3,30.45,NW,308,3.0,3.0,69,0.00,,,0.00,Wunderground v.1.15,2013-01-03 14:45:00,
2013-01-03 08:54:00,40.8,31.4,30.46,NE,42,2.0,2.0,69,0.00,,,0.00,Wunderground v.1.15,2013-01-03 14:54:00,
2013-01-03 09:05:00,40.8,31.1,30.46,NE,47,3.0,6.0,68,0.00,,,0.00,Wunderground v.1.15,2013-01-03 15:05:00,
2013-01-03 09:15:00,41.0,31.6,30.47,SE,134,2.0,3.0,69,0.00,,,0.00,Wunderground v.1.15,2013-01-03 15:15:00,
2013-01-03 09:24:00,40.8,31.8,30.47,East,94,2.0,2.0,70,0.00,,,0.00,Wunderground v.1.15,2013-01-03 15:24:00,
2013-01-03 09:30:00,40.7,32.0,30.47,NW,325,3.0,3.0,71,0.00,,,0.00,Wunderground v.1.15,2013-01-03 15:30:00,
2013-01-03 09:39:00,40.6,32.3,30.48,ENE,59,2.0,2.0,72,0.00,,,0.00,Wunderground v.1.15,2013-01-03 15:39:00,
2013-01-03 09:45:00,40.5,32.5,30.48,NNE,22,2.0,2.0,73,0.00,,,0.00,Wunderground v.1.15,2013-01-03 15:45:00,
2013-01-03 09:55:00,40.4,32.4,30.49,NE,55,2.0,4.0,73,0.00,,,0.00,Wunderground v.1.15,2013-01-03 15:55:00,
2013-01-03 10:05:00,40.5,32.9,30.49,NE,51,2.0,2.0,74,0.00,,,0.00,Wunderground v.1.15,2013-01-03 16:05:00,
2013-01-03 10:15:00,40.8,32.8,30.50,NE,41,2.0,3.0,73,0.00,,,0.00,Wunderground v.1.15,2013-01-03 16:15:00,
2013-01-03 10:25:00,41.0,32.7,30.50,ENE,70,2.0,2.0,72,0.00,,,0.00,Wunderground v.1.15,2013-01-03 16:25:00,
2013-01-03 10:34:00,41.2,32.5,30.50,ESE,105,1.0,2.0,71,0.00,,,0.00,Wunderground v.1.15,2013-01-03 16:34:00,
2013-01-03 10:45:00,41.7,32.6,30.50,NNE,13,2.0,2.0,70,0.00,,,0.00,Wunderground v.1.15,2013-01-03 16:45:00,
2013-01-03 10:54:00,42.1,32.3,30.50,ENE,58,2.0,4.0,68,0.00,,,0.00,Wunderground v.1.15,2013-01-03 16:54:00,
2013-01-03 11:05:00,42.8,32.2,30.50,NNW,345,2.0,2.0,66,0.00,,,0.00,Wunderground v.1.15,2013-01-03 17:05:00,
2013-01-03 11:14:00,42.9,31.9,30.50,North,5,4.0,6.0,65,0.00,,,0.00,Wunderground v.1.15,2013-01-03 17:14:00,
2013-01-03 11:25:00,43.3,32.7,30.50,ENE,63,2.0,3.0,66,0.00,,,0.00,Wunderground v.1.15,2013-01-03 17:25:00,
2013-01-03 11:34:00,43.6,32.6,30.49,North,353,2.0,4.0,65,0.00,,,0.00,Wunderground v.1.15,2013-01-03 17:34:00,
2013-01-03 11:45:00,43.7,32.3,30.49,NW,325,3.0,3.0,64,0.00,,,0.00,Wunderground v.1.15,2013-01-03 17:45:00,
2013-01-03 11:55:00,44.0,31.8,30.48,ENE,68,3.0,5.0,62,0.00,,,0.00,Wunderground v.1.15,2013-01-03 17:55:00,
2013-01-03 12:05:00,44.2,32.4,30.48,NE,36,2.0,3.0,63,0.00,,,0.00,Wunderground v.1.15,2013-01-03 18:05:00,
2013-01-03 12:14:00,44.2,32.0,30.48,NNE,19,3.0,4.0,62,0.00,,,0.00,Wunderground v.1.15,2013-01-03 18:14:00,
2013-01-03 12:25:00,44.0,32.2,30.47,ENE,75,3.0,3.0,63,0.00,,,0.00,Wunderground v.1.15,2013-01-03 18:25:00,
2013-01-03 12:34:00,44.1,32.3,30.47,NE,47,3.0,3.0,63,0.00,,,0.00,Wunderground v.1.15,2013-01-03 18:34:00,
2013-01-03 12:45:00,44.5,32.7,30.46,NE,42,3.0,3.0,63,0.00,,,0.00,Wunderground v.1.15,2013-01-03 18:45:00,
2013-01-03 12:54:00,44.7,32.5,30.46,North,9,3.0,3.0,62,0.00,,,0.00,Wunderground v.1.15,2013-01-03 18:54:00,
2013-01-03 13:00:00,44.6,32.4,30.44,NE,47,2.0,3.0,62,0.00,,,0.00,Wunderground v.1.15,2013-01-03 19:00:00,
2013-01-03 13:09:00,44.6,32.8,30.44,NNW,332,2.0,2.0,63,0.00,,,0.00,Wunderground v.1.15,2013-01-03 19:09:00,
2013-01-03 13:59:00,45.6,33.3,30.43,ESE,105,2.0,2.0,62,0.00,,,0.00,Wunderground v.1.15,2013-01-03 19:59:00,
2013-01-03 14:10:00,45.7,33.0,30.43,NE,47,2.0,3.0,61,0.00,,,0.00,Wunderground v.1.15,2013-01-03 20:10:00,
2013-01-03 14:19:00,45.9,33.2,30.43,NNE,20,2.0,2.0,61,0.00,,,0.00,Wunderground v.1.15,2013-01-03 20:19:00,
2013-01-03 14:25:00,46.1,33.8,30.43,East,89,2.0,2.0,62,0.00,,,0.00,Wunderground v.1.15,2013-01-03 20:25:00,
2013-01-03 14:34:00,46.1,33.0,30.42,NE,51,2.0,2.0,60,0.00,,,0.00,Wunderground v.1.15,2013-01-03 20:34:00,
2013-01-03 14:45:00,46.1,33.0,30.43,NE,41,3.0,5.0,60,0.00,,,0.00,Wunderground v.1.15,2013-01-03 20:45:00,
2013-01-03 14:54:00,46.2,33.5,30.42,East,84,3.0,3.0,61,0.00,,,0.00,Wunderground v.1.15,2013-01-03 20:54:00,
2013-01-03 15:05:00,46.4,33.3,30.42,NW,315,3.0,3.0,60,0.00,,,0.00,Wunderground v.1.15,2013-01-03 21:05:00,
2013-01-03 15:14:00,46.2,33.1,30.43,NE,50,3.0,4.0,60,0.00,,,0.00,Wunderground v.1.15,2013-01-03 21:14:00,
2013-01-03 15:25:00,46.1,33.0,30.43,NNE,12,2.0,3.0,60,0.00,,,0.00,Wunderground v.1.15,2013-01-03 21:25:00,
2013-01-03 15:34:00,45.9,32.8,30.43,NE,55,2.0,2.0,60,0.00,,,0.00,Wunderground v.1.15,2013-01-03 21:34:00,
2013-01-03 15:45:00,45.8,33.1,30.43,NW,321,3.0,3.0,61,0.00,,,0.00,Wunderground v.1.15,2013-01-03 21:45:00,
2013-01-03 15:54:00,45.9,33.2,30.43,North,349,2.0,3.0,61,0.00,,,0.00,Wunderground v.1.15,2013-01-03 21:54:00,
2013-01-03 16:05:00,45.9,32.4,30.43,WNW,295,3.0,4.0,59,0.00,,,0.00,Wunderground v.1.15,2013-01-03 22:05:00,
2013-01-03 16:14:00,45.8,32.7,30.43,North,7,2.0,3.0,60,0.00,,,0.00,Wunderground v.1.15,2013-01-03 22:14:00,
2013-01-03 16:25:00,45.8,33.1,30.43,ENE,68,2.0,2.0,61,0.00,,,0.00,Wunderground v.1.15,2013-01-03 22:25:00,
2013-01-03 16:34:00,45.7,33.0,30.43,NNW,338,2.0,3.0,61,0.00,,,0.00,Wunderground v.1.15,2013-01-03 22:34:00,
2013-01-03 16:45:00,45.6,33.3,30.44,North,358,2.0,2.0,62,0.00,,,0.00,Wunderground v.1.15,2013-01-03 22:45:00,
2013-01-03 16:54:00,45.6,33.7,30.44,ENE,71,2.0,3.0,63,0.00,,,0.00,Wunderground v.1.15,2013-01-03 22:54:00,
2013-01-03 17:00:00,45.5,33.6,30.44,NE,49,2.0,3.0,63,0.00,,,0.00,Wunderground v.1.15,2013-01-03 23:00:00,
2013-01-03 17:09:00,45.5,34.0,30.43,NE,49,2.0,3.0,64,0.00,,,0.00,Wunderground v.1.15,2013-01-03 23:09:00,
2013-01-03 17:15:00,45.4,34.3,30.43,NNW,330,2.0,3.0,65,0.00,,,0.00,Wunderground v.1.15,2013-01-03 23:15:00,
2013-01-03 17:24:00,45.2,34.5,30.44,NNW,332,2.0,4.0,66,0.00,,,0.00,Wunderground v.1.15,2013-01-03 23:24:00,
2013-01-03 17:35:00,45.1,34.4,30.44,ENE,58,2.0,3.0,66,0.00,,,0.00,Wunderground v.1.15,2013-01-03 23:35:00,
2013-01-03 17:44:00,45.0,34.3,30.44,NE,37,2.0,2.0,66,0.00,,,0.00,Wunderground v.1.15,2013-01-03 23:44:00,
2013-01-03 17:50:00,45.0,34.3,30.44,NW,317,2.0,3.0,66,0.00,,,0.00,Wunderground v.1.15,2013-01-03 23:50:00,
2013-01-03 17:59:00,44.7,35.1,30.44,East,86,1.0,1.0,69,0.00,,,0.00,Wunderground v.1.15,2013-01-03 23:59:00,
2013-01-03 18:10:00,44.3,35.5,30.44,North,352,1.0,1.0,71,0.00,,,0.00,Wunderground v.1.15,2013-01-04 00:10:00,
2013-01-03 18:19:00,44.1,34.9,30.45,North,349,1.0,1.0,70,0.00,,,0.00,Wunderground v.1.15,2013-01-04 00:19:00,
2013-01-03 18:30:00,44.1,34.6,30.45,North,11,1.0,1.0,69,0.00,,,0.00,Wunderground v.1.15,2013-01-04 00:30:00,
2013-01-03 18:39:00,44.1,34.9,30.45,East,96,1.0,1.0,70,0.00,,,0.00,Wunderground v.1.15,2013-01-04 00:39:00,
2013-01-03 18:50:00,44.1,34.9,30.45,NE,37,1.0,2.0,70,0.00,,,0.00,Wunderground v.1.15,2013-01-04 00:50:00,
2013-01-03 18:59:00,44.2,34.3,30.46,NE,41,1.0,1.0,68,0.00,,,0.00,Wunderground v.1.15,2013-01-04 00:59:00,
2013-01-03 19:10:00,44.1,33.5,30.46,NE,49,2.0,2.0,66,0.00,,,0.00,Wunderground v.1.15,2013-01-04 01:10:00,
2013-01-03 19:19:00,44.2,33.6,30.46,North,11,2.0,2.0,66,0.00,,,0.00,Wunderground v.1.15,2013-01-04 01:19:00,
2013-01-03 19:29:00,44.1,33.5,30.47,NE,36,1.0,1.0,66,0.00,,,0.00,Wunderground v.1.15,2013-01-04 01:29:00,
2013-01-03 19:35:00,44.0,33.4,30.47,ENE,72,1.0,1.0,66,0.00,,,0.00,Wunderground v.1.15,2013-01-04 01:35:00,
2013-01-03 19:44:00,43.9,33.6,30.47,NNW,336,0.0,1.0,67,0.00,,,0.00,Wunderground v.1.15,2013-01-04 01:44:00,
2013-01-03 19:50:00,43.8,33.9,30.46,East,99,0.0,0.0,68,0.00,,,0.00,Wunderground v.1.15,2013-01-04 01:50:00,
2013-01-03 19:59:00,43.8,33.6,30.46,NE,49,1.0,1.0,67,0.00,,,0.00,Wunderground v.1.15,2013-01-04 01:59:00,
2013-01-03 20:10:00,43.7,33.5,30.46,ENE,67,1.0,2.0,67,0.00,,,0.00,Wunderground v.1.15,2013-01-04 02:10:00,
2013-01-03 20:19:00,43.6,33.4,30.45,ENE,60,2.0,2.0,67,0.00,,,0.00,Wunderground v.1.15,2013-01-04 02:19:00,
2013-01-03 20:30:00,43.5,33.3,30.45,NE,46,1.0,2.0,67,0.00,,,0.00,Wunderground v.1.15,2013-01-04 02:30:00,
2013-01-03 20:39:00,43.4,33.2,30.44,East,90,1.0,1.0,67,0.00,,,0.00,Wunderground v.1.15,2013-01-04 02:39:00,
2013-01-03 20:50:00,43.4,33.2,30.44,NE,36,1.0,1.0,67,0.00,,,0.00,Wunderground v.1.15,2013-01-04 02:50:00,
2013-01-03 20:59:00,43.4,33.2,30.45,East,84,1.0,1.0,67,0.00,,,0.00,Wunderground v.1.15,2013-01-04 02:59:00,
2013-01-03 21:10:00,43.4,33.5,30.46,ENE,70,1.0,1.0,68,0.00,,,0.00,Wunderground v.1.15,2013-01-04 03:10:00,
2013-01-03 21:20:00,43.4,33.2,30.46,NNW,345,1.0,1.0,67,0.00,,,0.00,Wunderground v.1.15,2013-01-04 03:20:00,
2013-01-03 21:29:00,43.4,33.5,30.47,NE,50,0.0,1.0,68,0.00,,,0.00,Wunderground v.1.15,2013-01-04 03:29:00,
2013-01-03 21:35:00,43.4,33.5,30.47,NE,48,1.0,1.0,68,0.00,,,0.00,Wunderground v.1.15,2013-01-04 03:35:00,
2013-01-03 21:44:00,43.3,33.8,30.47,North,4,1.0,1.0,69,0.00,,,0.00,Wunderground v.1.15,2013-01-04 03:44:00,
2013-01-03 21:54:00,43.3,33.8,30.46,ENE,62,0.0,1.0,69,0.00,,,0.00,Wunderground v.1.15,2013-01-04 03:54:00,
2013-01-03 22:00:00,43.3,33.4,30.45,NE,51,1.0,1.0,68,0.00,,,0.00,Wunderground v.1.15,2013-01-04 04:00:00,
2013-01-03 22:09:00,43.2,33.7,30.45,NE,47,1.0,1.0,69,0.00,,,0.00,Wunderground v.1.15,2013-01-04 04:09:00,
2013-01-03 22:15:00,43.2,34.1,30.45,ENE,58,1.0,1.0,70,0.00,,,0.00,Wunderground v.1.15,2013-01-04 04:15:00,
2013-01-03 22:24:00,43.1,34.0,30.45,NE,40,0.0,1.0,70,0.00,,,0.00,Wunderground v.1.15,2013-01-04 04:24:00,
2013-01-03 22:35:00,43.2,33.7,30.46,NNW,328,1.0,1.0,69,0.00,,,0.00,Wunderground v.1.15,2013-01-04 04:35:00,
2013-01-03 22:44:00,43.2,34.1,30.47,WNW,284,1.0,1.0,70,0.00,,,0.00,Wunderground v.1.15,2013-01-04 04:44:00,
2013-01-03 22:54:00,43.2,33.7,30.45,NNE,30,1.0,2.0,69,0.00,,,0.00,Wunderground v.1.15,2013-01-04 04:54:00,
2013-01-03 23:00:00,43.2,34.1,30.45,NE,49,1.0,2.0,70,0.00,,,0.00,Wunderground v.1.15,2013-01-04 05:00:00,
2013-01-03 23:04:00,43.2,33.7,30.45,ENE,78,1.0,2.0,69,0.00,,,0.00,Wunderground v.1.15,2013-01-04 05:04:00,
2013-01-03 23:09:00,43.2,33.7,30.45,ENE,71,1.0,1.0,69,0.00,,,0.00,Wunderground v.1.15,2013-01-04 05:09:00,
2013-01-03 23:15:00,43.3,33.8,30.45,ESE,122,1.0,1.0,69,0.00,,,0.00,Wunderground v.1.15,2013-01-04 05:15:00,
2013-01-03 23:20:00,43.2,33.7,30.46,NNE,19,1.0,1.0,69,0.00,,,0.00,Wunderground v.1.15,2013-01-04 05:20:00,
2013-01-03 23:29:00,43.3,33.8,30.46,NNE,16,1.0,1.0,69,0.00,,,0.00,Wunderground v.1.15,2013-01-04 05:29:00,
2013-01-03 23:35:00,43.3,34.2,30.46,NNE,30,1.0,1.0,70,0.00,,,0.00,Wunderground v.1.15,2013-01-04 05:35:00,
2013-01-03 23:44:00,43.4,33.9,30.45,NE,44,1.0,2.0,69,0.00,,,0.00,Wunderground v.1.15,2013-01-04 05:44:00,
2013-01-03 23:55:00,43.4,33.9,30.45,NE,40,2.0,2.0,69,0.00,,,0.00,Wunderground v.1.15,2013-01-04 05:55:00,